Location: Haliburton Scout Reserve
(45.0900°N, 78.3200°W)
Time: 12:30:57
(UTC-05:00)

N. Korean satellite - Pass Details

Date: 02 December 2021
Orbit: 447 x 491 km, 97.3° (Epoch: 23 January)

Event Time Altitude Azimuth Distance (km) Brightness Sun altitude
Rises 05:30:05 0° 13° (NNE) 2,471 10.2 -21.0°
Reaches altitude 10° 05:32:08 10° 14° (NNE) 1,589 9.2 -20.7°
Maximum altitude 05:35:33 83° 102° (ESE) 458 6.4 -20.1°
Drops below altitude 10° 05:38:54 10° 191° (S) 1,568 9.2 -19.5°
Sets 05:40:55 0° 192° (SSW) 2,435 10.1 -19.1°
